sat.trackr.live / text

‹ back to catalog

STARLINK-36495

NORAD 67311 · 2026-002G

PAYLOAD ACTIVE UNKNOWN

§ Identity

Operator
Country
US
Launch date
2026-01-04
Launch site
AFETR
Launch vehicle
Mass (kg)
RCS (m²)

Purposes: comms

External: N2YO · Heavens-Above · Gunter

§ Orbital elements

Epoch: 2026-09-19T10:42:33.579936Z

Period
94.27 min
Inclination
43.0036°
Eccentricity
0.0002266
Mean motion
15.27601685 rev/d
Perigee alt
481.4 km
Apogee alt
484.5 km
Semi-major
6,861.1 km
B*
5.8508e-4
RAAN
310.8444°
Arg perigee
266.6648°
Mean anomaly
93.3945°
Rev number
4,087

§ Raw data

STARLINK-364951 67311U 26002G   26262.44622199  .00015884  00000+0  58508-3 0  99972 67311  43.0036 310.8444 0002266 266.6648  93.3945 15.27601685 40877

JSON: /api/v1/satellites/67311 · /tle

For live sub-satellite position, see the globe view (requires WebGL).

§ Visibility from observer

Set your observer location to see the next 7 days of passes ≥ 10°. The values pass through the URL so the page stays shareable.

No JS? Fill the form by hand. The geolocation button needs JavaScript.